This demonstration page uses our WeatherBlox Daily Observations layout. Learn more.

Left ArrowRight Arrow

Hourly Observations for February 14, 2016

Temp ( °F °C ) Dew Point ( °F °C ) Humidity (%) Winds ( mph kmh ) Pressure ( in mb ) Visibility ( mi km ) Precip ( " mm )
12:53 am 00:53 Clear 34 1.1 24 -4.4 67 67 SW 12 19 29.89 1012 10 16 0.00 0.00
1:53 am 01:53 Clear 33 0.6 24 -4.4 70 70 SW 12 19 29.87 1012 10 16 0.00 0.00
2:53 am 02:53 Cloudy 36 2.2 25 -3.9 64 64 SSW 13 20 29.83 1010 10 16 0.00 0.00
3:53 am 03:53 Cloudy 34 1.1 26 -3.3 73 73 SW 7 11 29.81 1009 10 16 0.00 0.00
4:53 am 04:53 Cloudy 37 2.8 25 -3.9 62 62 SW 14 22 29.78 1009 10 16 0.00 0.00
5:53 am 05:53 Cloudy 37 2.8 26 -3.3 65 65 SW 16 26 29.78 1008 10 16 0.00 0.00
6:53 am 06:53 Cloudy 37 2.8 26 -3.3 65 65 SW 15 24 29.77 1008 10 16 0.00 0.00
7:53 am 07:53 Cloudy 36 2.2 25 -3.9 64 64 SW 15 24 29.78 1008 10 16 0.00 0.00
8:53 am 08:53 Cloudy 38 3.3 26 -3.3 62 62 WSW 14 22 29.79 1009 10 16 0.00 0.00
9:53 am 09:53 Mostly Cloudy 40 4.4 26 -3.3 58 58 W 13 20 29.82 1010 10 16 0.00 0.00
10:53 am 10:53 Mostly Sunny 45 7.2 26 -3.3 48 48 W 18 30 29.83 1010 10 16 0.00 0.00
11:53 am 11:53 Sunny 50 10 23 -5 35 35 WNW 30 48 29.82 1010 10 16 0.00 0.00
12:53 pm 12:53 Sunny 52 11.1 21 -6.1 30 30 NW 24 39 29.81 1009 10 16 0.00 0.00
1:53 pm 13:53 Sunny 53 11.7 21 -6.1 28 28 WNW 22 35 29.80 1009 10 16 0.00 0.00
2:53 pm 14:53 Sunny 53 11.7 19 -7.2 26 26 NW 23 37 29.81 1009 10 16 0.00 0.00
3:53 pm 15:53 Mostly Sunny 50 10 19 -7.2 29 29 NW 14 22 29.83 1010 10 16 0.00 0.00
4:53 pm 16:53 Partly Cloudy 43 6.1 21 -6.1 42 42 W 7 11 29.84 1011 10 16 0.00 0.00
5:53 pm 17:53 Mostly Cloudy 44 6.7 22 -5.6 41 41 W 13 20 29.83 1010 10 16 0.00 0.00
6:53 pm 18:53 Mostly Clear 37 2.8 23 -5 57 57 W 8 13 29.86 1011 10 16 0.00 0.00
7:53 pm 19:53 Clear 37 2.8 23 -5 57 57 SW 14 22 29.84 1011 10 16 0.00 0.00
8:53 pm 20:53 Clear 38 3.3 23 -5 55 55 SW 15 24 29.83 1010 10 16 0.00 0.00
9:53 pm 21:53 Cloudy 37 2.8 25 -3.9 62 62 SW 16 26 29.80 1009 10 16 0.00 0.00
10:53 pm 22:53 Cloudy 41 5 24 -4.4 51 51 SW 17 28 29.76 1008 10 16 0.00 0.00
11:53 pm 23:53 Cloudy 39 3.9 25 -3.9 57 57 SW 15 24 29.75 1007 10 16 0.00 0.00

Powered by AerisWeather